Regional Weather Roundup
Issued by NWS

Home | Current Version | Previous Version | Text Only | Print | Product List | Glossary On
Versions: 1 2 3 4 5 6 7 8 9 10 11 12 13 14 15 16 17 18 19 20 21 22 23 24 25 26 27 28 29 30 31 32 33 34 35 36 37 38 39 40 41 42 43 44 45 46 47 48 49 50
000
ASUS45 KABQ 220810
RWRNM
WEATHER ROUNDUP FOR NEW MEXICO
NATIONAL WEATHER SERVICE ALBUQUERQUE NM
200 AM MDT WED OCT 22 2014

NOTE: "FAIR" MEANS FEW OR NO CLOUDS BELOW 12,000 FEET AGL WITH NO
       SIGNIFICANT WEATHER OR OBSTRUCTIONS TO VISION.

      THIS PRODUCT IS RELEASED AS TWO VERSIONS.  ONE VERSION NEAR
      THE TOP OF THE HOUR CONTAINING PRELIMINARY DATA FROM ALBUQUERQUE
      AND OTHER STATIONS.  A FINAL VERSION WITH ADDITIONAL DATA IS
      ISSUED ABOUT 10 MINUTES AFTER THE HOUR.

NMZ501-503-504-510>518-220900-
NORTHWEST PLATEAU/NORTHCENTRAL MOUNTAINS

CITY           SKY/WX    TMP DP  RH WIND       PRES   REMARKS
FARMINGTON     CLEAR     49  42  77 NE6       30.09S
LOS ALAMOS     CLOUDY    51  44  79 S3        30.19S
SANTA FE       CLOUDY    51  48  89 SE7       30.15S
TAOS           CLOUDY    46  43  87 N7        30.19S
ANGEL FIRE     FAIR      41  38  89 CALM      30.22S

$$
NMZ402-403-502-505>509-220900-
WESTCENTRAL MOUNTAINS/SOUTHWEST MOUNTAINS

CITY           SKY/WX    TMP DP  RH WIND       PRES   REMARKS
GALLUP         CLEAR     45  41  86 CALM      30.16S
GRANTS         CLEAR     45  43  93 CALM      30.17S
SILVER CITY    PTCLDY    50  48  93 NE3       30.15S

$$
NMZ407-409-411-412-220900-
SOUTHERN DESERTS

CITY           SKY/WX    TMP DP  RH WIND       PRES   REMARKS
LORDSBURG      FAIR      55  50  82 MISG      30.06S
DEMING         CLEAR     56  54  93 NE7       30.08S
LAS CRUCES     CLEAR     57  53  86 SE5       30.10R
HOLLOMAN AFB   PTCLDY    54  51  90 N5        30.08S
T OR C         PTCLDY    54  51  90 W6        30.10S

$$
NMZ519>523-220900-
CENTRAL VALLEYS/CENTRAL HIGHLANDS

CITY           SKY/WX    TMP DP  RH WIND       PRES   REMARKS
ALBUQUERQUE    CLOUDY    57  46  66 S5        30.12R
DOUBLE EAGLE   CLOUDY    51  47  88 S3        30.14S
MORIARTY ARPT  FOG       47  45  93 CALM      30.16F VSB<1/4
CLINES CORNERS PTCLDY    46  44  93 SW10      30.17S
BELEN          NOT AVBL
SOCORRO        FAIR      53  50  90 S5        30.10S

$$
NMZ524>526-539-540-220900-
SOUTHCENTRAL MOUNTAINS

CITY           SKY/WX    TMP DP  RH WIND       PRES   REMARKS
RUIDOSO        FOG       46  46 100 W3        30.22S VSB<1/4

$$
NMZ527>531-220900-
NORTHEAST HIGHLANDS/NORTHEAST PLAINS

CITY           SKY/WX    TMP DP  RH WIND       PRES   REMARKS
LAS VEGAS      FOG       48  48 100 S10       30.15F VSB 3/4
RATON          CLOUDY    50  49  96 CALM      30.10S
CLAYTON        CLOUDY    55  51  86 S15       30.07S

$$
NMZ532>537-220900-
EASTCENTRAL PLAINS

CITY           SKY/WX    TMP DP  RH WIND       PRES   REMARKS
TUCUMCARI      MOCLDY    60  55  83 W3        30.07S
CANNON AFB     CLOUDY    58  55  92 SW7       30.11S FOG
CLOVIS AIRPORT CLOUDY    57  54  88 SW7       30.13S

$$
NMZ028-029-538-220900-
SOUTHEAST PLAINS

CITY           SKY/WX    TMP DP  RH WIND       PRES   REMARKS
ROSWELL        CLOUDY    62  60  93 S5        30.08R FOG
CARLSBAD       CLOUDY    64  60  87 S8        30.06S
HOBBS          CLOUDY    59  59 100 CALM      30.11R


$$



USA.gov is the U.S. government's official web portal to all federal, state and local government web resources and services.